When you browse on this site, cookies collect data to enhance your experience and personalize the content and advertising you see.
Visit our Privacy Policy to learn more. By continuing to use the site, you agree to this use of cookies and data.
  • In Hungary
  • List of Countries
  • For 7 days
  • Water Temperature
  • Weather Map
  • News
  • Weather Widgets
  • user-avatar
    Login

    Hourly Weather Quibdó

    Today, 21 November, Thursday

    Time Temperature Precipitation Wind Pressure Humidity
    00:00 +22°C° 0.2 mm 0 mps 751 mmHg 97%
    01:00 +22°C° 0 mm 0 mps 751 mmHg 98%
    02:00 +22°C° 0.2 mm 0 mps 751 mmHg 98%
    03:00 +22°C° 0.2 mm 0 mps 751 mmHg 98%
    04:00 +22°C° 0.2 mm 0 mps 751 mmHg 98%
    05:00 +22°C° 0 mm 0 mps 751 mmHg 97%
    06:00 +23°C° 0 mm 0 mps 751 mmHg 97%
    07:00 +23°C° 0 mm 0 mps 751 mmHg 97%
    08:00 +24°C° 0.1 mm 0 mps 751 mmHg 90%
    09:00 +26°C° 0.1 mm 0 mps 752 mmHg 83%
    10:00 +30°C° 0.1 mm 1 mps 752 mmHg 77%
    11:00 +30°C° 0.8 mm 1 mps 751 mmHg 77%
    12:00 +30°C° 0.8 mm 1 mps 750 mmHg 77%
    13:00 +31°C° 0.8 mm 1 mps 749 mmHg 77%
    14:00 +30°C° 2.5 mm 1 mps 749 mmHg 82%
    15:00 +29°C° 2.5 mm 1 mps 748 mmHg 87%
    16:00 +28°C° 2.5 mm 1 mps 748 mmHg 92%
    17:00 +27°C° 1.6 mm 1 mps 749 mmHg 93%
    18:00 +26°C° 1.6 mm 1 mps 749 mmHg 95%
    19:00 +25°C° 1.6 mm 1 mps 750 mmHg 96%
    20:00 +25°C° 0.4 mm 1 mps 750 mmHg 96%
    21:00 +23°C° 0.4 mm 0 mps 751 mmHg 97%
    22:00 +23°C° 0.4 mm 0 mps 751 mmHg 97%
    23:00 +23°C° 0.6 mm 0 mps 751 mmHg 97%

    Tomorrow, 22 November, Friday

    Time Temperature Precipitation Wind Pressure Humidity
    00:00 +23°C° 0.6 mm 0 mps 751 mmHg 97%
    01:00 +22°C° 0.6 mm 0 mps 751 mmHg 97%
    02:00 +22°C° 0.4 mm 0 mps 750 mmHg 98%
    03:00 +22°C° 0.4 mm 0 mps 750 mmHg 98%
    04:00 +22°C° 0.4 mm 0 mps 750 mmHg 98%
    05:00 +22°C° 0.3 mm 0 mps 750 mmHg 97%
    06:00 +23°C° 0.3 mm 0 mps 751 mmHg 97%
    07:00 +23°C° 0.3 mm 0 mps 751 mmHg 96%
    08:00 +24°C° 0.9 mm 0 mps 751 mmHg 93%
    09:00 +27°C° 0.9 mm 1 mps 752 mmHg 90%
    10:00 +28°C° 0.9 mm 1 mps 752 mmHg 87%
    11:00 +28°C° 2.3 mm 2 mps 751 mmHg 89%
    12:00 +28°C° 2.3 mm 2 mps 750 mmHg 90%
    13:00 +28°C° 2.3 mm 2 mps 750 mmHg 91%
    14:00 +27°C° 1.8 mm 2 mps 749 mmHg 92%
    15:00 +27°C° 1.8 mm 2 mps 749 mmHg 93%
    16:00 +26°C° 1.8 mm 2 mps 749 mmHg 95%
    17:00 +26°C° 0.7 mm 1 mps 749 mmHg 96%
    18:00 +25°C° 0.7 mm 1 mps 750 mmHg 97%
    19:00 +25°C° 0.7 mm 1 mps 750 mmHg 98%
    20:00 +24°C° 0.1 mm 1 mps 751 mmHg 98%
    21:00 +22°C° 0.1 mm 0 mps 751 mmHg 98%
    22:00 +22°C° 0.1 mm 0 mps 752 mmHg 98%
    23:00 +22°C° 0.2 mm 0 mps 751 mmHg 98%

    Day after tomorrow, 23 November, Saturday

    Time Temperature Precipitation Wind Pressure Humidity
    00:00 +22°C° 0.2 mm 0 mps 751 mmHg 98%
    01:00 +22°C° 0.2 mm 0 mps 751 mmHg 98%
    02:00 +22°C° 0.4 mm 0 mps 751 mmHg 98%
    03:00 +22°C° 0.4 mm 0 mps 750 mmHg 98%
    04:00 +22°C° 0.4 mm 0 mps 750 mmHg 98%
    05:00 +22°C° 0.4 mm 0 mps 751 mmHg 97%
    06:00 +22°C° 0.4 mm 0 mps 751 mmHg 97%
    07:00 +22°C° 0.4 mm 0 mps 752 mmHg 97%
    08:00 +24°C° 0.8 mm 0 mps 752 mmHg 93%
    09:00 +25°C° 0.8 mm 0 mps 752 mmHg 89%
    10:00 +29°C° 0.8 mm 1 mps 752 mmHg 85%
    11:00 +29°C° 1.5 mm 1 mps 751 mmHg 86%
    12:00 +29°C° 1.5 mm 1 mps 750 mmHg 87%
    13:00 +29°C° 1.5 mm 1 mps 750 mmHg 87%
    14:00 +29°C° 2.1 mm 1 mps 749 mmHg 89%
    15:00 +28°C° 2.1 mm 1 mps 749 mmHg 91%
    16:00 +28°C° 2.1 mm 1 mps 748 mmHg 93%
    17:00 +27°C° 1.1 mm 1 mps 749 mmHg 94%
    18:00 +26°C° 1.1 mm 1 mps 750 mmHg 96%
    19:00 +23°C° 1.1 mm 0 mps 750 mmHg 97%
    20:00 +23°C° 0.4 mm 0 mps 751 mmHg 97%
    21:00 +22°C° 0.4 mm 0 mps 751 mmHg 98%
    22:00 +22°C° 0.4 mm 0 mps 752 mmHg 98%
    23:00 +22°C° 0 mm 0 mps 751 mmHg 98%

    24 November, Sunday

    Time Temperature Precipitation Wind Pressure Humidity
    00:00 +22°C° 0 mm 0 mps 751 mmHg 98%
    01:00 +22°C° 0 mm 0 mps 751 mmHg 98%
    02:00 +22°C° 0 mm 0 mps 750 mmHg 98%
    03:00 +22°C° 0 mm 0 mps 750 mmHg 98%
    04:00 +22°C° 0 mm 0 mps 750 mmHg 98%
    05:00 +22°C° 0 mm 0 mps 750 mmHg 97%
    06:00 +22°C° 0 mm 0 mps 751 mmHg 97%
    07:00 +22°C° 0 mm 0 mps 751 mmHg 96%
    08:00 +24°C° 0 mm 0 mps 751 mmHg 88%
    09:00 +26°C° 0 mm 0 mps 751 mmHg 80%
    10:00 +30°C° 0 mm 1 mps 751 mmHg 72%
    11:00 +30°C° 0.5 mm 1 mps 750 mmHg 72%
    12:00 +31°C° 0.5 mm 1 mps 749 mmHg 73%
    13:00 +31°C° 0.5 mm 1 mps 748 mmHg 73%
    14:00 +30°C° 2 mm 1 mps 748 mmHg 79%
    15:00 +29°C° 2 mm 1 mps 748 mmHg 85%
    16:00 +28°C° 2 mm 1 mps 747 mmHg 91%
    17:00 +27°C° 1 mm 1 mps 748 mmHg 93%
    18:00 +26°C° 1 mm 1 mps 748 mmHg 95%
    19:00 +25°C° 1 mm 1 mps 749 mmHg 96%
    20:00 +23°C° 0.1 mm 0 mps 749 mmHg 97%
    21:00 +23°C° 0.1 mm 0 mps 750 mmHg 97%
    22:00 +22°C° 0.1 mm 0 mps 750 mmHg 98%
    23:00 +22°C° 0 mm 0 mps 750 mmHg 98%

    25 November, Monday

    Time Temperature Precipitation Wind Pressure Humidity
    00:00 +22°C° 0 mm 0 mps 750 mmHg 98%
    01:00 +22°C° 0 mm 0 mps 749 mmHg 98%
    02:00 +22°C° 0 mm 0 mps 749 mmHg 98%
    03:00 +22°C° 0 mm 0 mps 749 mmHg 98%
    04:00 +22°C° 0 mm 0 mps 748 mmHg 98%
    05:00 +22°C° 0 mm 0 mps 749 mmHg 98%
    06:00 +22°C° 0 mm 0 mps 749 mmHg 98%
    07:00 +22°C° 0 mm 0 mps 750 mmHg 97%
    08:00 +24°C° 0 mm 0 mps 750 mmHg 90%
    09:00 +26°C° 0 mm 0 mps 750 mmHg 82%
    10:00 +28°C° 0 mm 0 mps 750 mmHg 74%
    11:00 +29°C° 0.1 mm 0 mps 749 mmHg 69%
    12:00 +32°C° 0.1 mm 1 mps 748 mmHg 65%
    13:00 +33°C° 0.1 mm 1 mps 747 mmHg 60%
    14:00 +31°C° 1 mm 1 mps 746 mmHg 69%
    15:00 +30°C° 1 mm 1 mps 746 mmHg 79%
    16:00 +29°C° 1 mm 1 mps 746 mmHg 88%
    17:00 +28°C° 0.9 mm 1 mps 746 mmHg 91%
    18:00 +26°C° 0.9 mm 1 mps 747 mmHg 94%
    19:00 +25°C° 0.9 mm 1 mps 747 mmHg 96%
    20:00 +25°C° 0.2 mm 1 mps 748 mmHg 97%
    21:00 +25°C° 0.2 mm 1 mps 749 mmHg 97%
    22:00 +23°C° 0.2 mm 0 mps 749 mmHg 98%
    23:00 +23°C° 0.1 mm 0 mps 749 mmHg 98%

    26 November, Tuesday

    Time Temperature Precipitation Wind Pressure Humidity
    00:00 +23°C° 0.1 mm 0 mps 749 mmHg 98%
    01:00 +23°C° 0.1 mm 0 mps 748 mmHg 98%
    02:00 +23°C° 0.1 mm 0 mps 748 mmHg 98%
    03:00 +23°C° 0.1 mm 0 mps 748 mmHg 98%
    04:00 +23°C° 0.1 mm 0 mps 748 mmHg 98%
    05:00 +23°C° 0 mm 0 mps 748 mmHg 97%
    06:00 +23°C° 0 mm 0 mps 749 mmHg 97%
    07:00 +23°C° 0 mm 0 mps 749 mmHg 96%
    08:00 +24°C° 0 mm 0 mps 749 mmHg 90%
    09:00 +26°C° 0 mm 0 mps 749 mmHg 83%
    10:00 +28°C° 0 mm 0 mps 749 mmHg 77%
    11:00 +29°C° 0.2 mm 0 mps 749 mmHg 71%
    12:00 +32°C° 0.2 mm 1 mps 748 mmHg 66%
    13:00 +33°C° 0.2 mm 1 mps 747 mmHg 60%
    14:00 +32°C° 1.5 mm 1 mps 746 mmHg 70%
    15:00 +30°C° 1.5 mm 1 mps 746 mmHg 80%
    16:00 +29°C° 1.5 mm 2 mps 746 mmHg 90%
    17:00 +28°C° 1.1 mm 1 mps 746 mmHg 92%
    18:00 +27°C° 1.1 mm 1 mps 747 mmHg 95%
    19:00 +26°C° 1.1 mm 1 mps 748 mmHg 97%
    20:00 +25°C° 0.2 mm 1 mps 748 mmHg 97%
    21:00 +25°C° 0.2 mm 1 mps 749 mmHg 98%
    22:00 +25°C° 0.2 mm 1 mps 749 mmHg 98%
    23:00 +23°C° 0.2 mm 0 mps 749 mmHg 98%
    Show more